Wind_Speed
19 18 18 18 17 17 17 17 17 17 16 15 14 14 14 14 13 13 12 12 11 12 12 12 12 11 11 11 11 11 12 15 17 17 18 16 14 17 18 17 18 18 19 20 18 16 15 14 15 15 14 14 14 14 13 12 11 9 8 8 6 5 5 6 4 3 4 1 2 3 3 5 6 8 9 9 9 8 8 8 8 6 4 3 5 8 9 9
19 19 19 18 18 18 18 18 18 18 18 17 16 16 16 16 15 14 13 13 12 12 12 13 13 12 11 11 12 12 12 12 14 19 20 15 14 17 18 18 18 17 19 20 20 19 18 18 18 18 16 16 15 15 14 13 12 11 10 9 7 6 6 6 4 4 4 2 4 4 4 6 6 7 9 9 8 7 7 9 8 7 5 5 6 8 9 10
20 20 20 19 19 19 19 19 19 19 19 18 18 18 17 17 17 15 14 14 14 13 13 13 13 13 12 11 12 12 12 12 13 16 15 14 17 18 18 19 19 18 20 20 21 21 21 21 21 20 19 18 17 17 17 15 13 12 12 10 8 8 7 6 4 5 4 6 7 6 6 7 6 8 9 8 7 6 7 7 7 6 6 7 7 8 9 11
21 21 21 20 20 20 19 19 19 19 19 19 19 19 19 19 18 17 16 15 15 15 15 14 14 13 13 13 12 12 13 12 13 13 11 14 20 20 19 19 20 21 22 22 22 22 22 22 21 21 20 19 18 19 18 15 14 13 13 12 10 8 8 8 5 6 5 2 6 9 8 7 6 8 9 7 7 6 8 7 5 5 7 8 9 9 10 11
22 22 22 21 21 21 21 20 20 20 20 19 19 20 20 20 19 19 18 18 17 17 17 16 15 14 14 14 14 14 13 12 13 14 13 15 20 22 21 20 21 22 23 22 22 21 21 21 20 20 20 19 20 19 17 16 15 14 13 13 12 10 7 5 7 8 6 2 5 9 8 6 7 8 7 6 7 8 9 9 6 5 6 8 9 10 11 11
23 23 23 22 22 22 22 22 21 21 21 20 20 20 21 21 21 20 20 20 19 19 19 19 17 16 16 15 15 15 14 13 15 15 13 14 18 20 22 22 23 23 22 22 21 20 20 20 19 19 18 19 19 18 17 17 16 15 14 14 13 13 10 7 9 10 6 3 5 7 7 7 8 9 7 7 10 8 9 10 6 6 7 8 9 10 10 11
24 24 24 24 24 24 23 23 23 22 22 22 21 21 21 21 21 21 21 21 21 20 21 21 19 18 18 17 16 16 15 15 15 15 14 15 17 18 21 23 24 24 23 22 20 19 19 20 19 18 18 19 19 19 19 19 18 17 15 15 14 13 13 12 11 9 6 5 6 6 6 7 8 9 9 9 11 9 8 10 7 7 9 8 9 10 11 12
26 26 25 25 25 25 25 25 24 24 24 23 23 22 22 22 21 21 22 22 22 22 22 23 22 20 20 19 17 17 17 14 14 16 16 15 16 18 20 22 24 25 24 23 21 19 19 19 19 19 18 18 19 20 21 21 19 18 17 16 15 14 14 13 12 10 8 6 5 5 5 7 8 9 10 10 11 11 9 9 9 9 9 9 9 10 11 13
28 27 27 27 27 27 27 27 26 26 25 25 24 24 24 24 23 22 22 22 22 22 23 24 23 22 22 21 19 19 19 14 15 18 16 16 16 18 19 21 24 26 26 25 24 21 18 18 19 20 19 19 21 23 24 23 19 18 19 18 17 16 15 13 13 12 10 7 6 5 5 7 8 7 9 10 10 12 12 10 10 10 10 10 9 9 12 15
30 30 29 29 29 29 29 28 28 28 27 27 26 26 26 26 25 24 23 23 22 22 23 24 24 24 24 22 20 21 21 17 17 18 16 16 17 18 19 20 23 26 28 28 26 23 19 19 20 22 23 23 24 25 25 24 21 19 19 19 19 17 17 15 13 13 10 8 6 6 6 6 8 6 7 11 12 13 12 10 9 9 9 9 8 10 12 15
33 33 32 32 31 31 31 30 30 30 29 29 28 28 28 27 27 26 26 25 24 23 23 23 24 24 25 23 21 23 24 20 19 19 18 17 18 20 19 20 21 25 28 29 28 26 23 21 22 25 25 24 25 26 27 25 23 21 19 20 21 20 18 16 14 13 11 10 7 6 6 8 7 5 7 12 13 13 12 10 9 9 9 8 8 11 12 13
35 35 35 34 34 34 34 33 32 32 31 31 30 30 30 29 29 28 28 27 26 25 24 24 24 24 25 22 22 27 25 21 20 20 19 18 19 20 19 19 20 22 26 29 30 29 27 25 25 26 25 26 26 27 27 27 24 23 22 20 19 20 18 15 14 14 13 11 9 7 8 9 9 7 8 12 14 13 13 12 10 10 10 9 9 11 12 13
36 36 36 36 36 36 36 36 35 34 34 33 32 32 32 32 31 30 30 29 28 27 26 26 24 25 23 20 26 29 23 22 23 22 21 20 20 20 21 20 19 20 23 27 31 31 30 29 27 26 26 28 28 28 29 29 26 25 25 20 18 19 17 16 16 16 15 13 11 10 8 7 8 9 9 11 14 12 13 12 11 12 12 10 11 11 11 12
37 37 37 37 37 37 38 38 38 37 37 36 35 35 34 34 33 33 32 31 31 30 29 28 26 26 22 20 28 29 23 24 24 23 23 22 22 21 22 22 21 20 20 23 28 32 32 32 30 29 29 29 29 29 30 30 27 27 26 21 19 18 16 16 16 17 16 15 16 13 9 6 5 9 12 12 13 12 13 12 11 12 12 11 11 11 11 12
37 38 38 39 39 39 39 39 39 39 39 39 38 37 36 36 36 35 35 34 33 32 32 30 28 27 23 23 28 26 24 25 24 25 26 25 24 23 22 24 23 21 21 22 25 29 33 34 33 32 30 30 30 30 30 30 29 28 27 23 20 17 16 18 18 19 17 15 17 14 11 7 3 11 18 15 12 12 13 12 12 12 11 11 11 12 12 11
37 38 38 39 39 39 40 40 40 40 41 41 41 40 39 39 38 37 37 37 36 35 34 33 31 30 26 25 27 26 26 26 26 29 28 26 26 24 24 25 24 23 22 22 23 26 30 33 34 33 32 32 31 29 30 31 28 28 28 24 21 17 17 18 17 17 18 16 16 16 12 5 6 16 21 17 11 12 15 14 15 13 12 13 11 12 11 10
38 38 38 39 39 39 40 40 41 41 42 42 42 42 42 42 41 40 39 39 38 38 37 35 34 33 29 27 28 29 28 26 27 29 27 27 27 26 27 25 24 24 24 25 25 25 27 30 32 33 33 34 32 31 33 30 25 26 26 24 22 18 17 19 15 14 19 20 16 17 14 7 10 21 22 20 12 11 17 17 16 13 13 15 12 12 11 10
39 39 40 40 40 40 40 40 41 41 42 43 44 43 43 44 44 43 41 41 40 40 40 39 37 35 32 30 30 31 30 26 27 28 28 29 29 29 28 26 26 26 27 27 26 25 26 27 30 33 33 33 32 33 32 23 20 25 25 23 22 20 20 19 15 14 18 21 19 18 16 13 16 25 25 22 14 12 18 18 16 14 14 15 12 11 11 11
40 41 41 41 41 41 41 41 41 41 41 42 44 45 44 44 46 46 44 43 43 42 42 42 39 37 36 33 32 33 32 29 28 28 29 29 30 31 29 28 28 27 28 28 26 26 26 27 29 29 28 29 30 32 29 22 22 26 25 25 24 22 22 18 14 15 17 20 20 19 17 16 18 24 25 20 16 16 17 18 18 14 14 15 14 12 11 12
42 43 43 43 43 43 43 43 42 43 42 42 43 45 46 45 47 47 45 45 46 45 45 44 40 38 40 37 36 37 34 31 30 30 30 30 32 33 31 31 31 29 28 27 27 28 28 29 27 22 21 25 28 31 30 27 27 27 26 26 24 23 24 19 16 19 20 19 19 19 19 19 18 22 24 19 17 19 17 18 18 14 13 16 15 13 11 13
45 45 45 46 46 45 46 45 44 44 44 43 43 44 46 46 47 48 47 46 47 48 47 46 43 41 42 41 39 39 36 34 33 32 32 32 33 34 33 32 33 31 27 27 29 30 31 28 22 19 21 24 28 31 32 32 30 29 29 26 22 22 23 20 18 19 22 19 18 18 20 21 19 21 26 24 19 20 21 18 18 17 15 17 16 13 14 16
47 47 47 47 48 47 48 48 47 47 47 46 45 45 46 46 47 48 49 47 46 49 49 48 47 43 42 44 43 41 39 37 35 35 34 34 35 34 33 33 33 31 29 31 32 32 30 23 19 21 22 24 27 30 33 34 31 31 32 29 25 23 23 21 20 19 23 21 18 21 20 21 20 19 22 27 23 23 27 22 20 19 16 18 17 14 16 17
49 49 48 48 49 48 49 50 50 50 50 49 49 48 47 48 48 48 49 48 45 48 50 49 49 47 44 46 47 45 42 40 39 39 38 36 35 33 33 33 33 32 32 34 32 31 26 19 20 23 23 24 26 29 32 34 34 34 35 33 30 26 22 22 19 20 25 23 21 22 20 20 23 21 19 25 29 29 31 26 21 19 16 17 19 18 17 14
52 52 51 50 50 50 49 50 51 52 52 52 52 52 51 50 50 49 49 49 46 45 48 50 49 49 47 47 49 48 45 43 43 43 40 38 35 35 35 34 33 35 35 34 32 31 26 21 23 25 25 25 25 28 31 34 36 36 37 35 31 28 25 23 20 20 24 26 24 21 20 23 27 26 21 23 27 25 30 31 24 19 17 18 21 19 17 14
54 54 54 53 53 53 52 51 52 52 52 53 53 54 54 53 53 51 49 50 47 43 46 49 49 49 49 50 52 50 47 46 46 46 43 39 37 37 37 36 35 37 36 34 33 32 28 27 29 28 28 27 26 28 30 34 37 38 38 36 33 31 28 25 23 22 25 28 27 22 23 27 26 28 26 23 25 21 28 35 29 22 18 18 22 21 17 14
54 55 55 55 56 56 56 56 56 55 53 54 55 55 56 55 55 54 52 51 48 45 45 47 49 49 49 52 53 51 51 49 47 47 46 42 41 40 40 40 38 37 36 34 35 35 32 32 33 31 29 29 29 29 29 32 36 38 38 35 35 35 32 27 24 25 28 28 28 25 26 28 25 27 26 24 26 23 26 35 33 29 21 17 20 21 18 15
53 54 55 56 57 57 57 57 58 57 56 55 56 56 56 57 56 55 55 53 50 50 49 48 48 49 49 51 52 54 54 50 47 49 49 46 43 43 43 43 40 38 36 36 38 37 34 34 34 33 31 31 31 29 29 32 35 37 37 37 38 37 35 34 29 27 27 27 30 29 28 27 26 29 26 25 28 26 26 32 37 36 23 16 19 22 20 18
51 51 52 54 55 55 56 56 56 56 57 56 56 56 56 57 58 56 56 54 52 52 53 51 50 49 49 50 51 52 53 51 49 48 49 49 46 45 46 44 42 39 38 39 39 35 32 34 35 35 34 34 32 30 29 32 34 34 35 38 38 36 36 36 34 32 27 28 32 28 26 31 31 30 28 29 30 30 30 31 38 41 22 16 22 23 22 21
47 47 48 49 50 51 52 53 53 52 54 55 55 55 55 57 57 56 57 55 49 49 53 52 51 51 51 51 50 50 51 52 52 49 50 52 49 47 47 45 44 42 41 42 40 36 34 35 36 37 37 37 33 31 30 32 32 32 35 38 37 36 36 37 39 37 34 36 38 33 31 35 35 28 25 29 30 27 24 23 34 40 23 18 24 22 23 22
42 43 43 44 45 47 48 50 52 52 52 52 52 53 53 54 55 55 56 53 45 45 52 52 51 51 50 51 53 52 51 51 51 51 53 55 52 48 48 47 47 46 44 44 44 40 37 37 38 39 39 38 34 32 34 33 30 32 36 38 37 38 38 39 40 40 41 45 44 39 34 34 39 34 25 26 27 26 23 20 31 37 25 19 22 21 23 22
40 41 41 42 43 45 46 49 52 53 52 51 51 51 49 49 51 51 51 50 43 41 47 52 55 56 54 54 55 54 53 51 51 54 56 57 55 53 52 52 51 50 49 49 48 44 41 42 42 41 40 38 35 35 35 33 33 35 36 37 38 39 38 38 39 43 47 47 45 44 38 36 41 39 30 26 28 32 29 26 35 39 31 26 20 18 22 22
39 41 42 42 43 45 46 49 52 53 53 51 50 48 47 46 46 46 45 40 36 36 44 55 62 62 60 59 57 56 56 54 53 55 58 57 57 56 54 54 54 53 52 50 49 47 43 43 42 41 40 38 37 38 37 37 37 37 36 37 38 38 38 40 42 46 45 43 44 45 43 43 41 37 33 29 30 35 28 29 39 39 33 31 25 20 22 24
40 41 43 44 44 46 47 49 52 54 54 53 50 45 43 42 40 40 36 29 29 38 50 59 64 64 62 59 57 55 54 55 55 56 58 58 57 55 54 54 54 53 51 49 49 48 44 43 43 42 41 40 40 41 42 42 40 38 39 39 39 41 41 41 41 41 40 41 43 44 45 44 38 33 32 30 30 31 27 28 34 33 29 29 29 27 25 25
41 41 44 45 45 46 47 48 50 53 54 55 52 43 37 36 33 29 25 28 37 48 56 60 62 63 61 57 54 52 49 48 51 55 58 58 57 57 55 54 54 53 52 51 51 49 48 47 45 44 44 42 42 42 43 42 40 39 40 40 40 42 39 35 36 35 35 39 42 44 42 33 30 29 28 30 31 29 28 26 22 27 32 28 27 30 28 25
40 41 43 45 45 46 47 48 49 52 53 55 52 40 30 28 22 13 15 27 40 52 59 61 60 58 58 54 49 47 46 44 45 50 56 57 56 56 56 55 55 55 55 54 53 50 50 49 45 44 45 43 42 42 42 42 42 41 41 42 41 39 35 34 34 33 34 38 41 43 37 27 28 32 29 29 30 27 30 28 23 28 37 33 28 27 27 26
41 40 42 44 45 47 47 47 48 50 51 53 49 37 26 20 12 11 20 32 41 53 59 59 56 51 49 45 40 36 35 38 39 41 48 54 54 53 56 57 56 56 56 55 54 52 50 49 47 46 45 44 44 44 44 44 44 43 43 43 39 34 35 36 33 29 31 35 38 40 36 29 29 32 29 27 26 26 30 27 26 31 38 41 34 25 26 28
42 40 41 43 44 45 45 45 47 49 49 50 45 34 26 21 19 27 35 39 43 52 57 56 51 48 45 42 42 37 30 32 33 33 38 45 50 51 52 55 55 56 57 55 53 52 49 47 48 50 47 45 46 45 44 45 45 44 43 39 36 37 39 38 34 28 28 31 32 33 32 30 29 26 23 22 21 23 27 25 23 28 36 43 36 24 25 27
42 41 41 43 44 44 44 44 46 48 47 47 42 31 26 24 26 33 39 42 42 43 51 54 52 51 48 45 48 46 43 41 31 28 32 31 35 41 44 47 50 52 54 54 53 53 49 40 37 46 50 46 48 46 43 46 46 43 41 37 38 42 42 39 36 33 31 30 28 25 23 24 26 22 17 17 17 18 23 25 21 28 37 39 32 25 22 24
41 42 42 42 42 43 44 44 44 46 45 42 37 30 25 25 28 32 34 39 42 42 47 52 54 53 47 47 52 49 51 52 40 32 33 28 27 37 40 44 47 48 51 56 57 53 52 42 27 33 45 45 49 51 46 47 49 46 43 40 40 42 41 38 37 36 33 29 25 25 26 26 24 24 20 17 18 19 22 24 23 28 36 34 30 25 19 22
41 43 42 42 43 43 43 43 43 43 41 37 32 30 28 27 27 29 31 37 42 44 47 48 50 52 46 49 56 53 55 61 56 46 43 39 36 37 39 43 47 53 60 64 64 58 56 53 37 25 33 39 49 55 50 47 50 50 48 45 43 42 39 38 38 37 37 32 25 22 22 20 18 22 26 21 19 22 23 23 24 26 31 32 31 26 21 24
40 42 43 42 43 42 41 42 42 39 36 32 31 31 30 27 26 27 32 38 38 38 42 41 44 50 49 51 57 57 58 64 63 57 52 46 41 37 39 43 45 54 61 62 66 63 56 53 46 34 28 36 48 54 50 47 47 49 49 47 46 43 39 40 40 39 39 37 31 21 11 11 13 16 21 21 19 23 24 23 24 27 30 33 32 27 23 25
41 43 44 42 39 40 40 39 39 36 31 30 31 30 28 25 25 26 29 35 36 36 39 37 37 46 53 55 58 60 60 62 63 62 58 50 42 42 48 48 46 51 58 58 62 63 56 48 46 41 32 32 42 45 49 49 45 45 48 47 47 44 41 42 42 39 39 38 36 27 15 13 18 18 18 18 19 23 23 22 24 26 30 32 32 30 26 25
42 43 44 42 38 39 40 37 35 32 29 29 28 27 27 25 24 24 24 26 30 33 36 35 34 40 53 60 63 62 58 60 65 66 63 50 44 50 55 54 53 55 57 58 59 62 61 53 49 44 35 30 37 39 43 48 45 45 48 47 47 47 43 42 39 38 38 36 36 34 24 21 25 25 22 19 19 24 24 23 24 25 27 30 30 29 29 26
41 42 42 42 39 38 37 34 31 28 26 27 26 24 25 24 22 22 21 21 24 27 29 31 30 35 50 62 65 62 56 57 65 70 64 49 47 60 64 60 61 61 61 61 60 62 65 61 57 53 44 36 38 37 39 46 48 47 49 49 48 46 44 42 39 38 38 35 36 35 30 27 30 30 26 21 18 22 24 25 25 25 27 29 29 28 31 31
40 40 40 40 38 36 35 32 28 25 24 25 24 23 23 22 21 20 19 19 22 23 22 24 25 29 42 55 65 66 57 54 63 71 63 49 52 69 74 68 65 65 67 65 61 62 67 67 65 61 51 42 40 41 40 47 52 50 49 51 49 47 45 42 40 40 39 36 34 31 29 29 30 28 24 22 20 22 24 26 27 27 28 30 31 31 32 32
39 40 40 38 37 35 33 31 27 23 22 23 23 23 21 18 19 19 18 18 21 23 22 20 20 23 32 46 63 71 63 54 58 65 60 50 54 71 77 72 68 68 70 67 62 63 67 70 69 65 57 46 38 39 36 37 46 51 50 50 50 49 46 42 42 43 41 38 34 29 27 28 31 28 21 20 21 21 23 25 28 30 30 30 32 33 32 32
41 42 41 38 35 34 31 29 26 23 20 20 21 23 20 17 17 19 18 17 18 21 23 22 19 20 27 38 54 68 69 61 56 57 55 50 56 69 75 71 69 70 70 67 65 66 66 68 69 67 62 53 42 39 34 29 37 46 48 48 50 51 48 46 46 44 41 40 36 31 28 28 32 33 26 23 22 19 19 24 28 32 32 30 31 34 35 35
44 44 41 37 35 32 28 26 24 21 19 19 21 22 19 16 17 18 17 17 15 16 21 24 23 22 23 30 43 57 66 66 62 59 53 49 55 64 68 70 74 73 70 69 69 71 70 69 70 67 62 56 47 43 40 36 37 41 43 44 45 48 49 50 48 42 41 42 37 34 34 32 34 35 28 25 25 20 19 24 28 31 34 33 33 34 36 37
46 45 41 36 34 31 26 24 23 20 18 19 21 21 18 17 19 18 17 17 15 15 18 22 25 25 24 24 32 45 54 60 65 66 57 49 52 58 59 67 77 77 73 73 73 75 74 70 71 71 65 60 54 47 44 41 41 41 40 39 40 43 48 50 48 43 43 43 39 36 36 35 35 36 28 26 27 24 21 24 27 30 34 36 35 35 35 36
47 45 41 35 32 30 26 24 22 18 17 18 19 20 19 18 19 18 17 17 15 15 16 17 20 26 28 25 25 33 43 51 56 63 63 53 50 56 57 60 71 77 76 76 75 77 76 71 72 74 70 65 61 54 49 47 46 44 39 35 35 39 43 46 47 45 44 44 41 37 37 35 36 37 32 29 31 28 24 26 29 30 32 34 34 34 35 36
46 44 41 35 31 29 25 23 21 17 15 17 19 19 20 18 17 17 17 16 15 14 14 13 14 19 27 30 27 26 33 43 47 56 67 62 52 55 55 51 61 74 76 75 77 77 77 75 74 74 72 68 63 58 53 50 49 48 45 41 38 37 37 40 44 45 45 45 42 40 41 40 38 40 37 32 32 30 28 31 31 28 29 32 32 33 35 37
44 41 39 35 31 29 26 22 19 16 15 18 20 20 20 19 17 16 15 14 14 14 14 13 12 13 19 27 31 28 28 34 40 50 66 69 59 57 53 45 53 68 71 72 76 76 76 77 75 74 76 71 64 61 55 48 48 53 54 49 46 43 37 33 38 42 44 45 44 42 43 42 41 42 40 36 34 31 30 31 31 28 29 30 30 33 37 39
Wind_Direction
299 299 299 300 300 300 300 299 298 297 296 294 292 288 285 283 282 283 284 282 278 272 270 271 273 273 266 258 250 244 235 228 225 227 233 230 224 228 230 231 235 236 237 239 237 235 234 231 230 228 227 229 232 235 236 241 247 250 258 257 250 257 260 253 235 238 266 267 269 289 329 323 321 323 325 314 309 304 290 285 281 287 285 245 239 244 227 199
297 297 297 296 296 296 296 296 296 295 295 293 291 288 285 282 280 279 279 280 278 274 269 266 267 268 267 265 258 252 245 238 225 225 232 228 222 227 226 227 231 231 234 236 235 235 233 231 230 228 224 226 229 234 236 239 245 248 252 254 253 252 260 257 224 232 264 5 317 316 356 327 323 326 321 310 304 301 285 281 279 279 277 257 246 244 232 214
296 296 295 295 294 293 293 292 292 292 291 291 289 286 283 281 280 278 276 275 275 273 270 265 264 262 262 262 262 259 252 245 232 232 239 229 223 227 225 224 225 226 230 232 231 231 230 229 230 228 225 225 227 231 235 236 241 248 248 245 242 241 254 252 210 224 252 24 339 305 339 327 331 333 317 306 302 294 277 275 274 272 269 259 252 243 233 225
293 293 292 293 292 291 291 290 290 289 289 288 287 285 282 280 278 277 275 273 271 270 269 266 263 260 259 257 257 260 257 252 244 243 243 225 222 224 223 223 222 223 226 229 230 229 228 229 228 228 227 225 226 229 234 235 238 244 245 244 238 231 257 252 214 235 242 35 311 293 323 325 332 328 314 310 301 282 273 273 266 264 266 260 255 245 235 230
289 288 288 288 288 288 288 288 288 287 287 286 285 284 282 280 277 276 274 271 269 269 268 265 263 260 259 256 254 254 255 257 250 242 234 224 223 223 221 220 221 223 227 229 232 231 229 230 229 229 229 226 226 229 233 235 236 239 239 244 240 228 254 252 209 232 230 180 269 288 310 311 322 315 307 311 295 282 279 278 276 277 273 264 257 247 238 232
286 285 285 284 284 284 284 285 285 284 284 283 283 282 281 280 278 276 273 270 268 267 267 266 263 261 259 258 255 253 251 250 250 248 240 232 229 227 222 219 220 224 229 232 234 235 232 231 231 231 230 225 224 225 228 232 234 236 235 240 243 231 232 239 231 233 218 195 251 278 298 307 317 306 306 312 296 290 284 280 295 304 283 268 263 254 242 233
285 284 283 282 281 280 280 280 281 282 282 281 280 279 279 278 278 276 273 271 268 265 265 265 263 261 260 258 256 256 251 247 251 253 246 236 233 232 227 221 220 223 228 233 234 235 233 231 230 229 229 224 220 220 223 229 230 231 232 236 242 239 231 236 247 244 216 203 232 262 294 304 306 304 310 313 299 293 285 282 296 306 295 283 271 260 243 234
286 285 283 281 280 278 277 277 277 277 278 279 279 278 277 276 276 275 273 271 269 265 263 262 262 261 259 256 255 257 254 250 249 248 244 240 236 233 229 224 221 221 225 229 232 232 229 228 227 227 228 223 218 216 220 225 227 228 230 233 237 241 241 238 248 248 224 210 228 256 284 288 291 305 307 303 295 290 286 283 288 294 294 286 271 264 250 239
286 285 284 282 281 279 277 275 275 274 274 274 275 275 275 274 274 273 273 271 269 266 263 262 261 259 258 256 254 256 255 250 248 246 243 241 239 234 231 227 223 221 223 225 229 229 226 221 220 224 223 220 217 215 220 223 224 227 228 230 232 234 240 240 242 239 226 218 226 250 272 282 291 308 301 289 285 289 288 282 287 286 281 279 271 266 254 242
286 285 284 282 281 280 278 276 274 273 271 271 271 271 272 272 272 271 271 270 269 267 264 262 260 259 258 255 253 255 252 245 247 250 245 239 240 239 233 230 225 222 223 225 226 226 225 219 215 218 218 217 216 216 221 221 220 225 226 229 230 231 236 237 237 236 231 224 223 244 262 270 285 299 286 281 283 288 288 281 283 281 272 274 267 258 250 242
284 283 282 281 280 279 278 277 275 273 272 270 269 268 268 269 269 269 268 268 268 267 265 263 261 258 257 255 254 253 248 242 244 249 248 239 237 239 236 232 228 223 223 225 227 225 223 219 215 217 216 217 218 219 223 223 220 220 222 227 227 226 230 234 235 233 228 225 222 230 252 259 263 269 262 270 279 282 283 277 277 278 273 272 265 260 253 244
282 281 280 280 279 278 277 276 275 274 272 270 268 267 266 266 266 266 266 265 265 265 265 264 262 259 257 256 253 249 246 245 246 247 248 241 234 236 238 236 230 225 223 224 226 226 224 219 217 218 217 217 219 220 225 228 226 222 224 229 227 222 223 228 231 231 226 223 221 221 249 256 241 241 246 255 265 274 278 271 271 277 274 272 266 260 258 252
280 279 279 278 277 276 275 275 274 273 272 270 269 267 265 264 263 263 263 263 262 262 262 262 262 260 257 256 253 250 247 247 247 246 246 243 235 233 235 237 233 227 224 223 225 226 226 223 220 219 218 219 218 219 224 228 228 227 230 232 230 224 219 221 227 231 225 217 216 222 241 244 239 237 222 236 254 268 275 263 263 274 270 269 265 257 257 254
281 280 278 277 276 275 274 273 272 271 270 269 268 267 266 264 262 261 261 260 260 260 260 260 260 260 258 254 253 253 248 245 247 247 244 242 237 230 231 235 236 232 226 223 224 226 227 227 223 220 220 221 219 220 225 227 226 230 234 233 233 227 220 219 225 230 226 220 217 217 231 235 254 247 224 236 254 262 270 257 258 269 264 262 263 259 257 254
284 282 280 278 276 275 273 272 271 270 269 268 267 266 265 264 262 261 260 259 258 258 258 258 257 258 256 253 254 255 249 244 245 246 243 240 237 232 229 231 233 233 230 225 224 224 226 228 228 225 223 225 224 223 226 227 225 228 233 233 233 229 222 219 222 228 224 221 217 215 229 229 231 244 243 252 252 256 262 253 258 265 262 261 262 263 261 256
288 286 284 281 279 277 275 273 271 269 268 267 266 265 264 263 262 260 260 258 257 256 256 256 256 255 253 252 256 255 249 242 240 242 241 241 239 235 232 231 230 230 232 230 226 224 225 227 229 228 226 226 227 226 229 230 225 229 233 232 232 229 224 220 222 234 232 223 217 222 225 183 193 229 248 263 250 250 258 251 258 263 265 266 264 268 267 257
289 288 286 284 282 280 278 275 273 270 268 267 265 264 263 262 261 259 258 258 257 255 255 254 253 253 251 250 252 252 248 242 241 243 242 241 240 237 235 233 229 227 229 231 229 226 226 227 228 228 228 228 229 228 230 231 229 234 236 233 234 228 223 220 215 224 233 228 213 220 219 168 215 237 250 261 245 242 256 255 260 268 270 266 266 270 268 259
290 288 287 285 283 282 280 277 275 273 270 268 265 263 261 261 260 259 257 257 256 255 254 252 251 251 250 247 248 252 252 247 243 244 242 241 240 238 236 234 230 225 224 228 229 228 228 227 227 227 227 228 228 230 233 234 233 238 239 237 235 230 227 221 212 213 226 226 207 211 218 182 218 253 255 252 248 245 252 254 257 264 266 262 264 265 261 260
289 288 287 285 284 282 281 278 276 274 272 270 268 265 261 259 259 258 256 256 255 254 253 251 250 250 250 247 247 249 250 247 244 244 243 241 240 238 235 234 233 227 224 226 227 229 229 228 228 229 230 229 228 231 234 233 232 235 237 239 235 230 229 217 212 225 224 223 212 209 218 193 206 249 252 245 256 255 245 248 252 253 262 269 271 266 258 258
290 289 287 286 284 282 281 279 277 275 273 271 269 267 264 260 259 257 255 254 254 253 253 252 250 248 248 246 243 245 247 246 244 242 241 239 238 238 235 234 234 231 226 225 227 230 231 231 232 234 234 231 229 229 230 229 228 228 228 234 236 233 230 212 206 228 225 223 227 218 218 213 212 242 254 253 253 253 246 245 251 252 257 266 266 264 259 253
291 289 288 286 285 283 281 279 277 275 273 271 269 268 266 263 260 257 254 252 253 253 252 253 249 245 247 247 243 244 245 245 244 242 240 239 238 237 235 234 235 233 229 227 228 230 231 231 232 232 229 227 227 226 226 225 224 225 224 224 229 236 237 218 202 227 243 240 233 224 224 227 223 235 258 266 254 258 263 249 245 247 249 258 258 259 262 256
291 289 288 287 285 284 282 280 278 276 274 272 269 267 265 264 262 259 255 251 251 252 251 251 251 246 245 247 244 242 242 243 244 243 241 239 239 239 237 236 236 235 232 229 228 230 231 229 229 230 227 224 224 223 224 224 220 222 224 220 217 225 237 230 205 211 239 245 230 225 234 240 236 230 246 263 267 278 279 259 241 240 241 254 255 254 256 253
291 290 289 287 286 284 283 281 279 277 274 272 270 267 265 263 262 260 257 253 250 251 251 249 250 248 244 245 245 241 240 240 241 242 240 239 238 239 238 236 236 235 233 231 230 231 231 226 227 229 226 223 221 219 220 221 219 218 222 222 216 212 222 230 221 211 218 227 227 224 227 230 235 234 229 246 261 276 278 263 247 242 235 241 246 247 247 244
291 290 289 288 287 285 283 282 280 277 275 272 270 267 265 263 261 260 258 255 249 250 251 248 247 247 245 244 244 242 239 237 239 240 239 239 236 236 237 235 234 234 233 233 232 232 228 223 225 225 223 222 219 217 216 216 217 217 219 221 219 212 210 214 219 226 223 224 225 219 228 228 224 227 221 232 249 262 270 264 256 249 233 234 244 247 248 246
292 291 290 289 289 287 284 283 280 278 275 272 269 267 265 263 261 259 258 256 251 248 250 249 246 245 245 243 243 242 240 237 238 240 239 238 235 234 235 235 232 232 233 232 232 231 225 223 224 224 223 220 218 217 215 215 215 217 220 219 218 213 209 205 202 216 228 234 233 220 230 236 228 222 212 219 237 245 260 261 261 260 240 231 243 247 247 245
296 295 293 292 291 290 288 286 283 279 276 272 269 266 264 262 261 259 257 256 254 248 247 248 247 244 242 243 243 242 240 237 237 239 239 236 234 233 232 233 232 232 232 231 232 230 224 223 224 225 226 222 220 218 214 216 216 217 219 218 218 214 208 204 202 212 220 230 241 241 241 242 240 234 215 213 232 239 254 262 267 264 243 225 239 246 246 241
303 301 299 297 295 294 292 289 286 283 278 273 269 265 262 260 259 258 257 255 254 250 245 244 244 243 241 240 240 240 240 237 235 237 239 235 232 232 232 232 232 231 231 230 230 229 224 224 225 224 225 223 221 219 215 216 218 218 218 218 220 218 212 205 200 211 219 221 232 246 259 252 240 240 227 216 224 225 235 253 266 264 242 225 240 241 243 242
309 308 306 304 301 299 296 293 291 287 283 277 271 266 261 258 256 255 254 252 252 251 247 243 241 240 241 240 238 238 239 237 234 235 238 236 231 231 232 232 232 230 230 232 232 229 226 225 226 225 224 224 221 220 218 217 219 218 217 219 221 220 221 216 206 207 215 222 222 224 242 245 239 246 243 230 222 221 223 227 248 261 249 222 233 234 240 244
314 314 313 312 310 307 305 301 298 294 288 282 276 270 263 258 254 252 250 248 248 249 247 245 241 238 238 238 237 235 235 235 233 231 233 234 230 228 230 231 231 229 227 231 232 227 224 224 225 224 224 224 222 221 221 220 220 218 217 220 221 220 222 222 218 213 211 220 220 210 219 232 236 242 245 240 232 232 240 229 236 255 256 224 228 233 240 246
319 319 319 319 318 317 315 311 308 303 296 289 283 275 267 261 255 251 248 245 243 243 242 241 240 237 235 236 235 233 231 231 231 229 229 231 229 224 227 228 228 229 226 227 230 225 221 221 222 223 223 223 222 222 224 222 219 219 219 219 220 221 221 221 223 221 220 226 224 214 216 227 232 230 226 237 239 229 233 239 241 250 253 238 230 227 236 245
324 323 324 325 324 324 323 323 322 317 310 303 294 284 275 266 258 252 247 242 236 234 236 237 236 235 231 229 230 229 228 227 228 228 227 228 228 223 222 223 224 225 224 223 226 224 219 218 220 221 222 221 220 222 224 222 220 220 220 220 221 221 220 220 221 221 226 234 233 222 217 224 236 239 229 226 239 235 219 217 237 245 248 249 239 220 229 241
324 325 326 327 327 328 328 329 330 327 323 316 307 296 285 274 264 256 248 240 235 229 228 234 235 234 232 230 229 228 226 224 224 228 228 226 227 225 222 223 223 224 225 224 224 224 221 221 222 221 221 219 218 220 221 221 220 220 219 219 220 220 219 221 222 224 230 236 236 230 224 229 244 251 241 226 233 246 237 218 231 244 246 248 248 234 231 238
321 322 323 325 328 328 328 330 330 331 330 326 320 307 293 282 270 261 249 228 225 225 223 230 234 233 233 232 231 231 229 226 223 225 228 227 225 225 223 224 224 225 228 228 226 226 224 223 224 224 223 220 218 218 220 221 220 218 219 219 217 219 222 226 227 229 235 238 237 235 232 240 253 254 248 240 233 242 248 233 237 253 252 245 247 244 239 238
318 319 321 323 325 325 326 328 329 331 332 333 328 314 298 285 272 265 250 219 219 224 220 223 228 230 231 229 227 229 228 228 225 224 227 228 225 224 222 221 222 223 225 227 227 225 224 223 223 224 224 222 220 220 221 224 224 220 221 222 221 223 228 232 232 232 236 239 240 239 238 247 262 259 253 250 240 235 236 230 236 259 263 255 246 241 240 239
317 318 319 319 320 322 325 325 326 330 332 336 332 318 300 285 273 268 256 232 224 225 222 218 219 223 227 226 223 223 223 222 222 223 227 228 226 225 223 221 221 221 221 223 225 224 224 226 225 225 226 225 223 223 221 224 226 223 222 223 225 228 232 233 235 237 237 239 241 243 247 253 258 260 260 253 247 241 235 225 216 236 253 253 240 236 245 246
318 318 317 318 319 321 323 323 325 329 332 335 334 321 299 279 254 230 244 239 225 223 223 218 214 216 221 221 214 211 220 220 216 219 225 226 227 225 224 222 219 220 221 220 223 224 224 225 225 225 226 226 224 222 220 220 224 225 223 225 228 230 230 230 231 234 236 239 241 244 250 257 256 256 257 254 251 246 244 236 215 222 242 247 241 241 252 252
320 318 317 319 320 320 322 322 324 327 331 334 334 321 296 270 238 224 229 231 225 223 222 216 209 211 213 208 198 192 199 204 207 216 219 222 227 225 224 225 221 219 220 219 220 222 223 226 229 228 225 226 227 224 220 220 224 227 227 226 227 227 226 226 224 225 230 235 240 245 250 256 259 255 248 249 249 243 247 245 218 213 236 249 251 248 249 251
322 320 319 320 320 321 322 323 324 327 331 334 332 319 296 277 256 241 232 229 230 229 225 215 206 208 209 197 188 187 190 189 194 214 212 212 228 227 222 223 222 220 219 218 218 218 218 222 230 232 227 226 229 226 220 221 223 227 231 229 225 225 227 227 224 222 227 231 235 239 239 241 251 258 246 235 233 227 235 241 219 207 226 244 254 253 247 249
325 322 322 323 324 324 324 324 326 328 330 333 331 319 299 281 269 263 253 243 240 239 233 221 208 206 205 194 186 186 190 186 182 197 198 189 216 230 225 218 215 216 216 216 216 214 214 213 215 233 233 228 230 226 217 218 220 220 224 227 227 226 227 230 230 227 227 228 230 233 233 231 239 252 252 233 222 219 223 230 222 213 226 241 249 250 245 243
326 324 325 328 327 326 326 324 326 328 331 333 329 318 304 289 278 272 265 256 249 245 244 234 216 207 201 194 188 184 189 188 182 187 186 180 196 218 224 219 213 212 211 211 211 208 210 209 200 213 234 231 228 223 215 215 219 218 219 221 224 224 223 227 230 228 226 224 224 231 242 250 247 247 254 252 236 226 223 225 222 218 229 241 245 243 237 236
326 327 328 331 329 327 327 325 326 330 332 330 324 315 307 300 291 278 265 259 256 251 251 244 226 213 203 196 190 185 188 189 185 184 182 181 191 199 205 211 213 214 213 212 211 207 205 208 200 193 212 228 228 222 217 217 220 222 222 221 223 222 219 222 225 226 226 223 222 218 219 253 251 237 248 257 247 233 226 225 223 217 222 237 248 250 238 230
328 329 328 330 328 326 326 325 326 330 329 325 322 315 310 306 298 285 269 262 258 255 253 250 236 218 207 202 197 189 188 188 184 181 179 182 193 193 194 200 203 209 213 213 212 207 201 203 201 190 192 221 233 227 220 220 222 225 225 223 226 225 221 221 222 224 226 224 222 216 201 224 240 236 239 241 238 235 228 223 224 219 220 231 246 255 247 231
330 329 327 328 327 324 325 326 327 329 326 325 324 316 310 308 301 291 281 268 261 257 254 254 246 225 211 209 203 192 187 187 185 182 180 183 192 193 192 195 197 201 208 211 212 208 201 199 199 189 182 206 232 235 228 222 221 223 224 221 224 227 226 224 222 224 227 226 223 217 208 215 224 228 233 227 225 230 225 220 223 223 222 224 234 248 251 241
330 329 326 326 326 323 323 326 328 326 323 324 324 315 309 309 304 298 290 275 264 262 256 252 247 229 217 213 205 195 190 189 187 184 182 184 191 193 192 192 193 197 201 206 211 207 200 200 199 189 179 189 212 226 228 222 217 218 221 221 221 223 226 226 223 224 225 226 226 220 213 219 222 223 227 227 228 230 223 218 220 221 222 218 219 232 243 245
330 329 327 325 324 321 320 323 325 322 322 323 320 314 311 308 306 304 298 282 266 261 258 252 246 232 221 214 208 203 198 191 188 188 187 186 189 195 197 193 191 196 198 201 209 208 200 199 200 191 180 181 200 214 218 217 214 213 216 221 220 217 219 222 222 223 223 223 226 222 214 222 230 225 222 227 230 227 219 216 216 218 221 220 218 224 234 243
330 329 327 325 322 318 316 318 321 322 323 324 320 316 312 307 305 305 304 292 271 259 256 252 244 234 224 217 211 211 208 196 189 192 193 188 186 195 200 195 192 198 199 197 205 210 203 200 201 197 186 180 195 214 220 221 219 215 213 217 221 216 212 215 220 221 221 221 222 220 212 220 231 225 212 215 220 220 217 213 211 217 223 226 227 226 226 235
330 329 326 324 320 315 313 316 321 326 325 323 322 319 311 306 308 305 302 301 283 262 254 249 242 234 228 221 214 214 215 206 195 199 200 188 185 196 200 194 192 198 199 196 201 207 206 202 201 200 193 185 191 204 208 213 219 219 215 215 221 220 212 212 218 220 220 220 219 216 209 213 227 226 212 206 209 210 213 211 210 218 227 230 231 230 228 230
329 328 325 321 316 312 313 318 323 327 326 324 325 322 312 306 308 302 295 300 295 272 256 248 242 234 230 226 217 217 220 215 209 212 206 186 184 197 200 196 194 196 196 196 199 204 205 202 200 198 194 189 190 192 193 203 213 215 214 212 217 222 219 215 215 216 220 221 218 217 214 213 224 227 215 202 203 205 212 216 214 218 228 229 228 231 233 232
329 328 327 323 316 313 317 323 326 327 325 324 327 327 317 306 304 300 296 297 293 280 265 253 244 236 232 230 221 219 222 221 220 219 208 187 185 196 201 200 198 196 195 196 198 202 203 201 199 198 193 191 194 191 187 197 208 208 207 206 210 219 223 220 214 212 219 222 217 217 220 220 227 234 224 203 203 206 211 220 221 219 228 234 231 233 236 236
328 327 329 327 319 315 320 325 327 328 325 324 326 327 320 306 298 299 302 300 293 287 278 266 253 240 233 232 227 222 223 223 225 221 209 194 190 196 202 204 201 197 195 196 199 200 201 201 200 198 195 194 198 198 189 191 203 207 201 197 205 216 223 224 218 211 215 221 218 216 219 219 223 235 232 209 206 211 209 218 225 224 228 235 234 233 238 241
328 327 330 330 321 316 321 325 325 325 325 326 325 321 317 309 298 295 299 298 293 290 287 282 270 250 238 234 231 231 228 224 225 222 212 203 197 198 201 205 204 200 197 197 200 201 200 202 200 198 196 195 198 202 196 191 198 205 200 193 197 206 215 224 224 216 213 218 219 217 220 219 217 227 231 216 210 216 217 222 230 230 231 234 230 226 231 238
331 330 332 334 324 317 321 324 323 323 321 324 326 322 318 315 304 295 296 295 292 291 290 289 283 266 250 239 232 233 233 227 224 221 215 210 205 202 201 204 207 204 199 198 201 202 202 202 201 200 197 194 197 202 200 194 196 202 204 200 195 195 201 214 224 220 216 217 220 219 222 224 221 225 229 225 220 222 223 226 232 236 239 239 232 223 223 231
Height
5874 5874 5874 5874 5873 5873 5873 5873 5872 5872 5872 5872 5872 5871 5871 5871 5871 5871 5870 5871 5871 5870 5870 5870 5870 5870 5870 5870 5870 5871 5872 5872 5874 5874 5874 5874 5876 5876 5877 5877 5877 5878 5879 5879 5880 5882 5883 5884 5884 5885 5886 5886 5886 5887 5888 5889 5890 5891 5891 5892 5892 5892 5893 5893 5894 5894 5894 5894 5894 5895 5896 5896 5896 5895 5894 5893 5892 5893 5892 5892 5893 5894 5895 5897 5897 5897 5897 5898
5873 5872 5872 5872 5872 5871 5871 5871 5870 5870 5870 5870 5870 5870 5869 5869 5869 5869 5869 5869 5869 5869 5869 5869 5869 5869 5869 5869 5869 5870 5870 5871 5873 5873 5872 5874 5875 5875 5876 5876 5877 5877 5878 5878 5879 5880 5881 5882 5883 5883 5885 5885 5886 5887 5887 5888 5889 5890 5891 5891 5892 5892 5892 5893 5893 5894 5895 5894 5894 5894 5896 5896 5896 5895 5894 5893 5892 5892 5892 5892 5892 5894 5895 5896 5896 5897 5897 5897
5871 5870 5870 5870 5870 5869 5869 5869 5868 5868 5868 5868 5868 5868 5867 5867 5867 5868 5868 5868 5868 5867 5867 5868 5868 5868 5868 5868 5868 5868 5869 5870 5871 5871 5871 5873 5874 5874 5875 5875 5876 5877 5877 5877 5878 5878 5879 5880 5881 5882 5883 5884 5885 5886 5886 5888 5889 5890 5890 5891 5892 5893 5893 5893 5893 5894 5894 5893 5893 5895 5895 5896 5896 5895 5894 5893 5893 5892 5891 5891 5892 5893 5895 5895 5896 5897 5897 5897
5869 5868 5868 5868 5867 5867 5867 5866 5866 5866 5866 5866 5865 5865 5865 5865 5865 5866 5866 5866 5866 5866 5865 5866 5866 5867 5867 5867 5867 5867 5867 5868 5869 5869 5870 5871 5872 5872 5873 5874 5875 5876 5876 5876 5876 5877 5878 5878 5880 5881 5882 5883 5884 5885 5886 5887 5888 5889 5890 5890 5891 5893 5893 5894 5892 5893 5894 5893 5894 5895 5895 5896 5895 5895 5894 5894 5893 5892 5891 5891 5892 5893 5894 5895 5895 5896 5896 5897
5867 5866 5866 5865 5865 5865 5864 5864 5864 5864 5863 5863 5863 5863 5862 5863 5863 5863 5864 5864 5864 5864 5864 5864 5865 5865 5865 5866 5866 5866 5867 5867 5867 5867 5868 5869 5869 5870 5872 5872 5873 5874 5875 5875 5875 5876 5877 5878 5879 5880 5881 5883 5883 5884 5885 5886 5887 5888 5889 5889 5891 5893 5893 5893 5892 5893 5894 5894 5895 5895 5895 5896 5895 5895 5895 5894 5893 5893 5892 5891 5893 5893 5893 5894 5895 5895 5896 5897
5865 5864 5864 5863 5863 5862 5862 5862 5861 5861 5861 5861 5861 5860 5860 5860 5860 5861 5861 5861 5862 5862 5862 5862 5863 5863 5863 5864 5865 5865 5866 5866 5865 5866 5867 5868 5868 5868 5870 5871 5872 5873 5873 5874 5874 5875 5876 5877 5878 5879 5881 5882 5883 5884 5885 5885 5886 5887 5888 5889 5890 5892 5893 5892 5893 5894 5893 5893 5896 5895 5895 5896 5895 5894 5894 5894 5892 5893 5892 5890 5893 5894 5893 5894 5894 5895 5896 5897
5862 5862 5861 5861 5861 5860 5860 5859 5859 5859 5859 5859 5859 5858 5858 5858 5858 5858 5858 5858 5859 5860 5859 5859 5860 5861 5861 5862 5863 5863 5864 5864 5864 5865 5866 5866 5866 5867 5868 5869 5870 5871 5872 5873 5873 5874 5875 5876 5878 5879 5880 5881 5882 5883 5884 5884 5885 5886 5888 5888 5889 5890 5891 5892 5893 5893 5893 5893 5896 5896 5896 5896 5895 5894 5893 5893 5891 5891 5892 5891 5893 5893 5892 5894 5895 5895 5896 5896
5860 5859 5859 5859 5858 5857 5857 5857 5857 5856 5856 5856 5856 5856 5855 5855 5855 5855 5855 5855 5856 5857 5857 5857 5858 5859 5859 5860 5861 5861 5861 5863 5863 5863 5864 5864 5865 5865 5866 5867 5868 5869 5870 5871 5872 5873 5874 5875 5877 5878 5879 5880 5881 5882 5882 5883 5884 5885 5887 5888 5888 5889 5890 5891 5891 5892 5893 5893 5895 5896 5896 5896 5896 5895 5894 5894 5891 5890 5891 5891 5892 5892 5892 5894 5895 5895 5895 5895
5857 5857 5856 5856 5855 5855 5854 5854 5854 5854 5854 5853 5853 5853 5852 5852 5852 5852 5852 5853 5853 5853 5854 5854 5855 5855 5856 5857 5859 5859 5859 5861 5861 5861 5862 5863 5863 5863 5864 5865 5866 5867 5868 5869 5870 5871 5872 5874 5875 5876 5878 5879 5879 5880 5880 5881 5883 5885 5886 5887 5887 5888 5889 5890 5890 5891 5892 5893 5894 5895 5896 5896 5895 5895 5894 5893 5892 5890 5890 5891 5891 5892 5892 5893 5894 5895 5895 5896
5854 5853 5853 5853 5852 5852 5851 5851 5851 5851 5851 5851 5850 5850 5850 5849 5849 5849 5850 5850 5850 5850 5850 5851 5851 5852 5853 5854 5856 5856 5856 5858 5858 5858 5860 5861 5861 5861 5862 5863 5864 5865 5866 5867 5868 5870 5871 5872 5873 5874 5875 5876 5877 5878 5878 5880 5882 5883 5884 5886 5887 5888 5888 5889 5889 5890 5892 5892 5894 5895 5895 5896 5895 5895 5895 5893 5892 5890 5889 5890 5890 5891 5892 5893 5894 5894 5895 5896
5850 5850 5849 5849 5849 5848 5848 5848 5847 5847 5847 5847 5847 5847 5847 5846 5846 5847 5847 5847 5847 5847 5848 5848 5848 5849 5850 5851 5854 5853 5853 5855 5856 5856 5857 5859 5859 5859 5860 5861 5862 5863 5863 5864 5866 5867 5869 5870 5871 5871 5872 5874 5876 5876 5877 5878 5880 5881 5883 5884 5886 5887 5887 5888 5889 5890 5891 5892 5893 5894 5895 5895 5895 5895 5895 5893 5892 5891 5889 5889 5889 5890 5891 5892 5893 5893 5894 5895
5846 5846 5845 5845 5845 5845 5844 5844 5844 5843 5843 5843 5844 5843 5843 5843 5843 5843 5843 5844 5844 5844 5845 5845 5845 5846 5846 5849 5850 5848 5850 5853 5854 5854 5855 5856 5856 5857 5858 5859 5860 5861 5861 5862 5863 5865 5866 5868 5869 5870 5872 5873 5874 5875 5876 5877 5878 5880 5881 5882 5884 5885 5886 5887 5888 5889 5891 5892 5893 5893 5894 5894 5895 5895 5894 5892 5891 5890 5890 5889 5889 5889 5890 5891 5892 5892 5892 5893
5842 5841 5841 5841 5841 5840 5840 5840 5840 5839 5839 5839 5840 5839 5840 5840 5840 5840 5840 5840 5841 5841 5842 5842 5843 5843 5844 5847 5844 5843 5848 5850 5850 5852 5852 5853 5854 5855 5856 5856 5857 5858 5859 5860 5861 5862 5864 5865 5867 5868 5869 5870 5871 5873 5874 5875 5876 5878 5879 5880 5882 5883 5885 5887 5887 5888 5890 5891 5892 5892 5893 5894 5895 5895 5893 5891 5890 5890 5890 5889 5889 5889 5889 5890 5891 5891 5891 5892
5837 5837 5836 5836 5836 5835 5835 5835 5835 5835 5835 5835 5835 5835 5835 5835 5836 5836 5836 5837 5837 5838 5838 5839 5839 5840 5842 5844 5840 5841 5846 5846 5847 5849 5849 5850 5851 5853 5854 5854 5855 5856 5857 5858 5859 5860 5861 5862 5864 5866 5866 5868 5870 5871 5871 5873 5875 5876 5877 5879 5881 5882 5884 5886 5887 5888 5889 5889 5890 5891 5892 5894 5896 5896 5893 5891 5890 5890 5890 5889 5889 5889 5889 5889 5890 5891 5891 5891
5832 5832 5831 5831 5831 5830 5830 5830 5830 5830 5830 5830 5831 5831 5831 5831 5831 5832 5832 5833 5833 5834 5834 5835 5836 5837 5840 5840 5837 5839 5842 5843 5845 5845 5845 5847 5848 5850 5851 5852 5853 5853 5854 5855 5856 5857 5858 5860 5861 5863 5865 5866 5867 5868 5869 5870 5873 5874 5876 5877 5879 5882 5884 5885 5886 5886 5887 5888 5889 5890 5892 5893 5897 5896 5891 5890 5891 5890 5890 5890 5888 5889 5889 5888 5889 5890 5890 5891
5827 5827 5826 5825 5825 5825 5824 5824 5824 5824 5824 5824 5825 5826 5826 5826 5826 5827 5828 5828 5829 5830 5830 5831 5832 5833 5836 5837 5835 5837 5837 5839 5841 5840 5842 5844 5845 5847 5848 5849 5850 5851 5852 5853 5853 5854 5855 5857 5859 5861 5862 5863 5865 5867 5867 5868 5871 5873 5874 5876 5878 5881 5883 5884 5885 5886 5886 5888 5889 5890 5891 5894 5897 5895 5890 5889 5890 5890 5890 5889 5889 5890 5889 5888 5889 5889 5889 5890
5822 5822 5820 5820 5819 5819 5819 5818 5818 5818 5818 5818 5819 5820 5821 5821 5821 5822 5823 5824 5824 5825 5825 5827 5828 5829 5832 5834 5833 5832 5833 5836 5837 5837 5839 5841 5842 5843 5844 5846 5848 5849 5849 5850 5851 5852 5853 5854 5856 5858 5859 5861 5863 5864 5864 5866 5871 5871 5872 5875 5877 5880 5882 5882 5884 5887 5886 5886 5888 5889 5891 5893 5894 5893 5890 5889 5889 5890 5889 5888 5888 5890 5890 5889 5889 5889 5889 5890
5817 5816 5815 5814 5813 5813 5813 5812 5812 5812 5812 5812 5813 5814 5815 5815 5815 5816 5818 5819 5819 5820 5821 5821 5823 5825 5827 5829 5830 5829 5830 5833 5834 5834 5836 5837 5838 5839 5841 5843 5844 5845 5846 5847 5848 5849 5850 5851 5852 5854 5856 5858 5860 5861 5862 5867 5871 5870 5871 5874 5876 5878 5880 5881 5884 5887 5887 5885 5886 5889 5890 5891 5892 5890 5889 5887 5888 5890 5889 5887 5888 5890 5890 5890 5889 5889 5889 5890
5812 5811 5810 5808 5808 5807 5806 5806 5806 5806 5806 5806 5806 5807 5808 5809 5808 5810 5813 5813 5813 5815 5815 5816 5819 5821 5822 5825 5826 5825 5826 5829 5831 5831 5833 5834 5834 5835 5838 5839 5840 5842 5843 5844 5846 5847 5847 5848 5849 5851 5854 5856 5858 5860 5863 5868 5869 5869 5871 5872 5874 5876 5878 5880 5883 5887 5887 5885 5884 5886 5889 5890 5890 5888 5886 5886 5887 5887 5888 5887 5887 5889 5890 5889 5889 5889 5889 5890
5807 5806 5804 5803 5802 5801 5800 5800 5800 5799 5800 5800 5800 5799 5800 5802 5802 5803 5807 5807 5807 5809 5809 5811 5815 5817 5817 5819 5821 5820 5822 5825 5827 5828 5828 5830 5830 5831 5834 5835 5836 5838 5840 5843 5843 5844 5844 5844 5847 5850 5853 5855 5857 5859 5861 5865 5866 5866 5869 5870 5872 5874 5876 5879 5883 5886 5886 5885 5883 5884 5887 5890 5891 5889 5884 5885 5887 5885 5886 5888 5887 5888 5889 5889 5890 5890 5889 5890
5801 5800 5798 5796 5796 5795 5794 5794 5794 5793 5793 5794 5794 5793 5793 5795 5795 5795 5799 5801 5802 5803 5804 5805 5809 5812 5812 5813 5816 5816 5819 5821 5822 5823 5825 5826 5826 5827 5830 5832 5833 5835 5838 5840 5840 5840 5840 5842 5847 5850 5851 5852 5854 5856 5858 5860 5862 5864 5865 5867 5871 5873 5875 5877 5881 5885 5883 5882 5883 5884 5885 5887 5889 5890 5885 5883 5885 5884 5883 5887 5888 5888 5890 5889 5889 5889 5889 5890
5795 5793 5792 5790 5789 5789 5787 5786 5787 5786 5786 5787 5787 5787 5786 5787 5787 5788 5791 5795 5797 5796 5798 5800 5801 5807 5809 5807 5809 5812 5814 5816 5817 5819 5820 5822 5823 5824 5827 5829 5830 5833 5835 5835 5835 5836 5838 5843 5847 5847 5847 5848 5850 5852 5854 5856 5859 5861 5862 5864 5868 5871 5874 5876 5878 5883 5883 5881 5884 5884 5884 5885 5887 5889 5888 5883 5883 5883 5880 5883 5887 5888 5890 5889 5887 5888 5890 5891
5788 5786 5785 5783 5781 5781 5780 5778 5778 5778 5779 5779 5779 5780 5780 5780 5780 5781 5782 5787 5791 5790 5791 5795 5795 5799 5803 5801 5802 5805 5809 5812 5812 5813 5815 5817 5820 5822 5823 5825 5827 5829 5830 5830 5833 5835 5838 5843 5844 5843 5844 5845 5846 5848 5850 5853 5855 5857 5859 5861 5864 5868 5873 5875 5877 5880 5882 5881 5883 5883 5883 5886 5887 5887 5889 5887 5884 5884 5879 5878 5882 5886 5889 5888 5885 5887 5890 5891
5781 5779 5778 5776 5773 5773 5773 5771 5770 5769 5770 5771 5771 5771 5772 5773 5773 5774 5776 5778 5784 5786 5784 5787 5790 5792 5795 5795 5795 5798 5803 5806 5806 5807 5810 5813 5817 5818 5819 5821 5823 5824 5825 5828 5831 5833 5836 5840 5839 5839 5840 5841 5844 5845 5846 5849 5851 5853 5856 5858 5862 5866 5870 5874 5877 5879 5881 5880 5879 5881 5882 5883 5885 5885 5888 5888 5886 5884 5878 5874 5878 5882 5886 5887 5885 5887 5889 5889
5772 5770 5769 5768 5765 5763 5764 5764 5761 5760 5761 5762 5762 5762 5763 5765 5765 5766 5769 5769 5776 5782 5778 5779 5784 5786 5787 5786 5787 5792 5796 5799 5801 5801 5805 5809 5812 5814 5815 5817 5818 5819 5821 5825 5827 5829 5833 5835 5834 5835 5837 5839 5840 5841 5844 5846 5848 5850 5852 5856 5860 5863 5866 5870 5874 5878 5878 5877 5876 5878 5879 5879 5880 5880 5883 5886 5886 5886 5880 5873 5874 5879 5884 5886 5885 5885 5886 5886
5764 5761 5760 5759 5756 5754 5754 5753 5751 5751 5752 5751 5751 5753 5754 5755 5757 5758 5761 5763 5768 5773 5772 5773 5775 5778 5779 5778 5782 5787 5788 5793 5796 5796 5799 5804 5806 5809 5810 5811 5814 5816 5819 5822 5823 5824 5828 5829 5830 5832 5834 5836 5837 5839 5842 5843 5845 5847 5850 5854 5856 5858 5862 5866 5871 5874 5875 5876 5876 5875 5875 5877 5877 5876 5879 5883 5885 5887 5882 5873 5872 5875 5880 5885 5884 5884 5885 5885
5755 5753 5751 5749 5747 5746 5744 5743 5742 5741 5740 5740 5741 5742 5743 5745 5748 5750 5752 5756 5759 5762 5764 5766 5767 5770 5771 5771 5775 5778 5780 5787 5791 5790 5792 5797 5801 5803 5804 5806 5810 5813 5815 5816 5817 5820 5824 5826 5828 5830 5832 5833 5835 5837 5839 5841 5842 5844 5848 5851 5852 5855 5858 5861 5865 5869 5871 5875 5875 5873 5873 5873 5875 5874 5875 5879 5881 5884 5883 5877 5872 5870 5875 5882 5883 5882 5884 5884
5748 5745 5743 5740 5738 5736 5734 5733 5732 5730 5729 5729 5730 5731 5733 5734 5738 5741 5744 5747 5751 5751 5753 5756 5759 5762 5762 5764 5769 5772 5775 5781 5784 5786 5787 5790 5795 5797 5799 5802 5806 5809 5812 5811 5813 5818 5822 5824 5824 5827 5829 5830 5832 5835 5837 5838 5839 5842 5846 5847 5850 5853 5855 5858 5860 5863 5867 5869 5868 5870 5873 5871 5871 5872 5873 5874 5876 5879 5880 5880 5876 5868 5871 5879 5881 5881 5883 5884
5743 5740 5737 5734 5731 5728 5725 5724 5723 5721 5720 5718 5719 5720 5721 5723 5727 5731 5732 5738 5743 5740 5741 5746 5750 5752 5754 5758 5762 5765 5768 5771 5775 5779 5779 5780 5787 5791 5793 5798 5801 5804 5806 5807 5809 5814 5817 5819 5821 5823 5825 5827 5830 5833 5834 5835 5837 5841 5843 5844 5847 5850 5852 5855 5856 5858 5861 5860 5859 5865 5869 5869 5868 5870 5871 5870 5872 5875 5877 5880 5878 5869 5869 5875 5878 5880 5882 5883
5738 5735 5733 5730 5727 5723 5720 5716 5713 5712 5710 5709 5709 5708 5710 5712 5716 5719 5721 5729 5734 5728 5730 5735 5737 5743 5749 5750 5753 5756 5760 5763 5767 5770 5771 5773 5779 5785 5788 5792 5794 5797 5800 5802 5803 5808 5812 5814 5816 5817 5820 5824 5828 5830 5830 5832 5836 5838 5839 5841 5844 5846 5849 5851 5852 5855 5855 5850 5852 5858 5863 5864 5863 5864 5868 5868 5870 5873 5876 5880 5877 5869 5867 5871 5874 5878 5880 5881
5734 5731 5728 5726 5722 5719 5716 5711 5707 5704 5701 5700 5698 5698 5700 5701 5704 5708 5711 5718 5721 5717 5720 5722 5725 5733 5737 5737 5741 5747 5751 5756 5759 5760 5762 5766 5770 5776 5780 5782 5785 5788 5791 5794 5797 5802 5806 5807 5809 5813 5816 5821 5824 5825 5826 5830 5833 5834 5835 5838 5840 5842 5845 5847 5847 5850 5847 5844 5849 5855 5858 5859 5856 5858 5864 5868 5868 5869 5873 5877 5873 5867 5867 5868 5871 5877 5879 5880
5731 5727 5724 5721 5718 5714 5711 5707 5704 5700 5695 5693 5690 5689 5690 5690 5694 5697 5701 5709 5709 5707 5711 5711 5714 5722 5723 5727 5734 5738 5742 5747 5751 5752 5754 5759 5763 5768 5773 5775 5779 5782 5785 5790 5793 5796 5801 5804 5807 5810 5813 5817 5820 5821 5823 5825 5827 5829 5832 5834 5836 5839 5840 5840 5842 5843 5842 5842 5848 5852 5854 5853 5851 5856 5861 5865 5867 5865 5869 5872 5867 5865 5867 5867 5868 5874 5877 5879
5727 5724 5719 5717 5714 5709 5706 5703 5700 5696 5690 5686 5683 5681 5680 5681 5685 5687 5693 5698 5692 5694 5703 5700 5704 5713 5716 5724 5731 5733 5738 5741 5744 5746 5747 5752 5757 5762 5768 5772 5775 5779 5784 5788 5790 5793 5798 5801 5803 5806 5809 5812 5814 5816 5817 5820 5823 5826 5827 5829 5832 5833 5834 5836 5838 5840 5841 5843 5846 5850 5851 5849 5849 5855 5858 5861 5864 5864 5865 5866 5864 5863 5864 5865 5868 5870 5873 5876
5723 5720 5716 5712 5709 5706 5703 5699 5695 5691 5686 5681 5676 5673 5672 5673 5675 5679 5685 5685 5678 5684 5691 5688 5696 5705 5707 5717 5724 5727 5733 5736 5739 5741 5741 5745 5750 5755 5761 5765 5769 5774 5779 5781 5783 5788 5792 5793 5798 5801 5803 5807 5810 5812 5815 5818 5821 5823 5825 5827 5828 5830 5832 5835 5837 5838 5841 5843 5845 5846 5846 5847 5849 5852 5855 5858 5860 5862 5862 5863 5866 5864 5860 5862 5865 5867 5869 5871
5719 5716 5712 5708 5705 5702 5698 5694 5690 5686 5682 5676 5670 5667 5666 5666 5669 5675 5676 5672 5671 5675 5676 5678 5689 5696 5700 5710 5716 5721 5726 5729 5732 5735 5735 5739 5744 5750 5755 5759 5763 5767 5770 5774 5778 5783 5786 5789 5795 5798 5800 5804 5807 5810 5813 5815 5816 5819 5823 5823 5825 5828 5832 5834 5835 5837 5840 5842 5842 5842 5842 5846 5848 5849 5852 5854 5856 5858 5859 5861 5865 5864 5860 5860 5862 5864 5866 5869
5714 5711 5707 5703 5700 5696 5693 5689 5686 5682 5677 5672 5666 5662 5661 5661 5664 5666 5661 5657 5659 5661 5664 5674 5684 5689 5694 5702 5709 5716 5721 5723 5725 5727 5730 5735 5739 5745 5748 5751 5757 5760 5763 5769 5774 5778 5782 5786 5791 5793 5796 5800 5802 5805 5808 5811 5812 5815 5817 5819 5824 5829 5831 5831 5833 5836 5839 5839 5839 5840 5841 5843 5845 5846 5848 5850 5852 5854 5855 5857 5862 5862 5859 5857 5859 5863 5865 5866
5707 5706 5703 5698 5695 5691 5688 5685 5681 5677 5673 5667 5662 5659 5657 5656 5655 5651 5645 5644 5647 5650 5655 5667 5677 5681 5682 5688 5695 5700 5703 5709 5717 5722 5726 5731 5733 5737 5742 5745 5750 5754 5758 5765 5769 5774 5779 5783 5785 5787 5792 5795 5796 5800 5805 5807 5809 5811 5813 5819 5825 5826 5825 5827 5831 5834 5835 5836 5837 5839 5840 5841 5841 5842 5846 5848 5850 5851 5851 5853 5858 5861 5857 5852 5855 5861 5863 5863
5701 5700 5698 5694 5690 5687 5683 5680 5676 5672 5668 5663 5658 5654 5652 5652 5649 5645 5642 5642 5644 5647 5648 5656 5666 5669 5670 5676 5681 5682 5685 5697 5711 5718 5722 5727 5730 5731 5734 5738 5743 5748 5754 5759 5763 5768 5773 5779 5781 5782 5786 5791 5792 5795 5800 5803 5805 5809 5812 5817 5820 5819 5820 5824 5827 5830 5832 5834 5836 5838 5839 5841 5840 5840 5843 5845 5847 5849 5849 5850 5854 5858 5854 5850 5852 5857 5860 5861
5696 5693 5691 5688 5684 5681 5677 5674 5670 5666 5663 5659 5655 5651 5648 5647 5646 5645 5645 5644 5644 5643 5643 5648 5653 5657 5663 5668 5670 5673 5680 5688 5695 5704 5713 5721 5724 5724 5724 5729 5733 5737 5743 5747 5753 5762 5767 5772 5778 5779 5781 5785 5785 5787 5792 5796 5799 5804 5808 5810 5812 5814 5818 5822 5824 5827 5830 5832 5835 5836 5836 5838 5840 5840 5840 5842 5844 5845 5846 5846 5850 5853 5851 5849 5852 5855 5858 5859
5692 5687 5685 5682 5678 5674 5671 5668 5665 5661 5657 5654 5651 5647 5644 5642 5641 5641 5641 5640 5639 5639 5640 5644 5650 5654 5658 5661 5663 5667 5673 5673 5675 5686 5701 5708 5709 5711 5717 5723 5725 5725 5729 5735 5742 5751 5758 5763 5771 5777 5778 5778 5776 5779 5787 5792 5794 5798 5801 5803 5806 5810 5816 5819 5821 5824 5827 5829 5832 5834 5836 5838 5840 5840 5838 5839 5841 5842 5843 5844 5847 5849 5848 5848 5849 5853 5857 5859
5689 5684 5679 5676 5672 5669 5666 5662 5659 5657 5653 5650 5647 5643 5640 5638 5636 5635 5634 5632 5634 5636 5636 5639 5646 5650 5652 5655 5658 5659 5661 5665 5668 5676 5689 5696 5693 5694 5702 5711 5717 5722 5727 5732 5737 5745 5753 5757 5763 5772 5775 5773 5772 5777 5785 5790 5792 5795 5798 5801 5803 5807 5813 5815 5816 5820 5823 5826 5829 5832 5836 5838 5837 5837 5837 5838 5839 5839 5840 5842 5844 5847 5847 5846 5847 5850 5855 5858
5685 5680 5675 5672 5669 5665 5662 5658 5655 5653 5651 5647 5643 5639 5636 5634 5631 5629 5628 5627 5629 5630 5629 5632 5638 5642 5646 5648 5647 5647 5652 5659 5663 5667 5676 5682 5680 5682 5689 5698 5708 5716 5720 5725 5732 5741 5748 5751 5756 5765 5771 5773 5773 5775 5780 5785 5789 5793 5796 5800 5802 5804 5809 5811 5813 5817 5819 5823 5826 5830 5834 5836 5834 5835 5836 5836 5837 5837 5838 5840 5842 5845 5847 5847 5846 5847 5851 5855
5680 5675 5670 5668 5665 5661 5658 5655 5652 5649 5647 5643 5640 5636 5632 5631 5628 5626 5625 5624 5624 5624 5624 5628 5631 5634 5638 5636 5635 5641 5649 5653 5656 5659 5663 5667 5668 5673 5682 5689 5697 5705 5711 5717 5723 5730 5737 5743 5750 5759 5766 5772 5774 5773 5774 5778 5783 5786 5789 5794 5798 5801 5805 5809 5812 5815 5817 5820 5823 5826 5829 5830 5830 5832 5833 5834 5835 5834 5836 5838 5840 5843 5846 5847 5846 5846 5847 5851
5676 5672 5667 5663 5660 5657 5653 5651 5648 5645 5642 5640 5637 5634 5630 5628 5626 5624 5623 5622 5620 5619 5620 5622 5624 5627 5628 5629 5633 5640 5644 5647 5651 5654 5652 5651 5653 5659 5666 5673 5683 5691 5699 5708 5713 5719 5729 5737 5743 5750 5756 5762 5768 5767 5767 5770 5775 5779 5783 5788 5793 5798 5802 5806 5810 5813 5814 5817 5820 5823 5826 5826 5827 5829 5831 5833 5834 5833 5834 5836 5838 5841 5844 5846 5847 5847 5846 5847
5672 5669 5664 5659 5656 5653 5650 5647 5645 5641 5639 5636 5633 5631 5628 5626 5623 5621 5620 5619 5617 5616 5617 5618 5619 5621 5623 5627 5632 5634 5636 5641 5647 5648 5642 5638 5642 5651 5656 5665 5676 5681 5688 5700 5708 5714 5723 5727 5732 5740 5747 5755 5761 5760 5760 5764 5769 5774 5779 5782 5787 5793 5798 5802 5806 5808 5810 5814 5816 5820 5824 5824 5824 5827 5830 5831 5832 5831 5832 5834 5837 5839 5842 5844 5845 5845 5845 5845
5668 5664 5660 5656 5652 5649 5646 5643 5641 5638 5635 5633 5630 5628 5625 5623 5621 5619 5617 5616 5614 5614 5615 5615 5616 5618 5619 5622 5625 5626 5629 5634 5639 5639 5634 5632 5640 5648 5654 5664 5673 5677 5684 5696 5703 5709 5717 5721 5726 5735 5741 5748 5756 5759 5761 5765 5767 5770 5775 5778 5782 5788 5794 5798 5801 5803 5807 5811 5814 5817 5821 5822 5822 5824 5828 5829 5829 5830 5831 5833 5836 5837 5839 5840 5842 5843 5845 5845
5663 5660 5655 5652 5648 5645 5642 5639 5636 5634 5632 5630 5627 5624 5622 5620 5618 5617 5615 5613 5612 5611 5612 5613 5614 5615 5615 5616 5619 5620 5622 5627 5632 5630 5627 5633 5642 5647 5653 5661 5664 5670 5681 5690 5695 5702 5710 5717 5725 5733 5738 5742 5747 5753 5759 5762 5763 5767 5772 5776 5779 5784 5790 5794 5796 5800 5804 5808 5811 5815 5818 5819 5819 5820 5824 5827 5828 5829 5831 5832 5834 5835 5836 5839 5841 5842 5844 5845
5658 5655 5651 5647 5644 5641 5639 5636 5633 5630 5628 5626 5624 5621 5619 5617 5616 5614 5612 5611 5610 5609 5609 5609 5610 5611 5612 5613 5615 5616 5616 5620 5624 5622 5623 5634 5642 5644 5648 5651 5653 5662 5675 5681 5686 5691 5698 5708 5720 5728 5735 5738 5739 5743 5749 5754 5758 5762 5768 5773 5776 5780 5785 5789 5793 5798 5801 5804 5809 5812 5814 5816 5816 5817 5822 5825 5827 5829 5830 5830 5832 5834 5834 5836 5839 5841 5842 5844
5654 5650 5646 5642 5639 5636 5635 5632 5629 5627 5625 5623 5621 5618 5616 5614 5613 5612 5610 5609 5608 5607 5606 5606 5607 5608 5609 5609 5611 5612 5612 5613 5614 5616 5622 5632 5636 5638 5642 5646 5650 5658 5665 5670 5674 5680 5691 5705 5714 5720 5726 5730 5732 5736 5742 5749 5754 5757 5762 5769 5774 5776 5780 5785 5791 5796 5798 5801 5806 5809 5811 5814 5814 5814 5820 5824 5825 5827 5828 5828 5830 5832 5832 5833 5837 5839 5841 5843
5650 5645 5642 5638 5634 5632 5631 5628 5625 5624 5621 5619 5618 5616 5614 5612 5610 5609 5607 5606 5606 5604 5604 5603 5603 5604 5605 5606 5607 5607 5607 5607 5609 5614 5621 5627 5629 5632 5638 5643 5648 5651 5655 5660 5666 5675 5687 5696 5702 5711 5719 5724 5730 5735 5737 5741 5747 5752 5757 5766 5772 5776 5777 5781 5786 5792 5795 5797 5802 5806 5808 5811 5813 5812 5816 5821 5823 5824 5826 5826 5827 5829 5830 5832 5836 5839 5841 5841
5646 5641 5638 5635 5631 5628 5627 5624 5622 5620 5618 5616 5615 5613 5611 5610 5608 5606 5605 5604 5603 5602 5601 5601 5601 5601 5602 5602 5603 5604 5604 5604 5607 5612 5618 5621 5623 5627 5632 5639 5644 5648 5653 5658 5665 5674 5681 5686 5695 5707 5716 5724 5731 5733 5733 5736 5742 5747 5751 5757 5765 5771 5774 5777 5781 5787 5791 5794 5798 5802 5804 5806 5809 5809 5811 5816 5820 5822 5823 5822 5824 5828 5829 5831 5834 5838 5839 5839
5644 5638 5634 5631 5628 5626 5624 5621 5618 5617 5615 5613 5612 5610 5608 5607 5605 5604 5603 5602 5601 5600 5599 5599 5598 5598 5599 5599 5600 5600 5601 5603 5604 5608 5613 5617 5619 5623 5629 5635 5640 5646 5652 5657 5664 5672 5677 5684 5693 5701 5709 5719 5726 5728 5730 5733 5735 5739 5744 5750 5758 5765 5771 5776 5778 5782 5788 5791 5794 5798 5800 5802 5806 5807 5809 5813 5816 5818 5820 5821 5823 5826 5827 5829 5832 5835 5836 5836